This is the latest recevied weather packets stored in our database for station/object K5BOU. If no packets are shown the sender has not sent any weather packets the latest 10 day(s).
| Time | Temp. | Humidity | Pressure | Rain* | Wind** | Luminosity | Snow |
|---|---|---|---|---|---|---|---|
| 1788456884 | 32.78° C | 76% | 1012 hPa | 0 mm | - | 248 W/m² | - |
| 1788456579 | 32.78° C | 77% | 1011.9 hPa | 0 mm | - | 267 W/m² | - |
| 1788456274 | 32.78° C | 76% | 1012 hPa | 0 mm | - | 355 W/m² | - |
| 1788455970 | 33.33° C | 78% | 1011.9 hPa | 0 mm | - | 659 W/m² | - |
| 1788455665 | 32.78° C | 79% | 1012.4 hPa | 0 mm | - | 743 W/m² | - |
| 1788455365 | 32.78° C | 80% | 1012.5 hPa | 0 mm | - | 956 W/m² | - |
| 1788455059 | 32.78° C | 80% | 1012.2 hPa | 0 mm | - | 975 W/m² | - |
| 1788454758 | 32.78° C | 81% | 1012.4 hPa | 0 mm | - | 998 W/m² | - |
| 1788454453 | 32.22° C | 81% | 1012.7 hPa | 0 mm | - | 439 W/m² | - |
| 1788454147 | 32.78° C | 81% | 1012.7 hPa | 0 mm | - | 967 W/m² | - |
| 1788453842 | 31.67° C | 83% | 1012.7 hPa | 0 mm | - | 912 W/m² | - |
| 1788453541 | 32.22° C | 83% | 1012.8 hPa | 0 mm | - | 765 W/m² | - |
| 1788453238 | 31.67° C | 85% | 1012.6 hPa | 0 mm | - | 684 W/m² | - |
| 1788452934 | 31.67° C | 83% | 1012.5 hPa | 0 mm | - | 561 W/m² | - |
| 1788452630 | 31.11° C | 86% | 1012.6 hPa | 0 mm | - | 545 W/m² | - |
| 1788452326 | 30.56° C | 87% | 1012.6 hPa | 0 mm | - | 258 W/m² | - |
| 1788452021 | 30.56° C | 87% | 1012.5 hPa | 0 mm | - | 248 W/m² | - |
| 1788451717 | 31.11° C | 87% | 1012.6 hPa | 0 mm | - | 210 W/m² | - |
| 1788451415 | 31.11° C | 87% | 1012.5 hPa | 0 mm | - | 578 W/m² | - |
| 1788451114 | 30.56° C | 87% | 1012.5 hPa | 0 mm | - | 807 W/m² | - |
| 1788450809 | 30.56° C | 88% | 1012.6 hPa | 0 mm | - | 625 W/m² | - |
| 1788450505 | 30.56° C | 89% | 1012.6 hPa | 0 mm | - | 382 W/m² | - |
| 1788450201 | 30.56° C | 89% | 1012.6 hPa | 0 mm | - | 743 W/m² | - |
| 1788449896 | 30° C | 89% | 1012.8 hPa | 0 mm | - | 430 W/m² | - |
| 1788449592 | 30° C | 90% | 1012.5 hPa | 0 mm | - | 296 W/m² | - |
* Rain latest hour (hover to see other rain measurements)
** Current wind speed in m/s (hover to see current wind gust speed)